Puerto Plata, Dominican Republic

4:52 AM AST on January 23, 2018 (GMT -0400)
Gregorio Luperon International

Weather History for MDPP - March, 2013

Change the Weather History Date:

Monday, March 25, 2013

  Actual Average Record
Temperature  
Mean Temperature 80 °F -  
Max Temperature 89 °F 82 °F 90 °F (2016)
Min Temperature 71 °F 70 °F 66 °F (2009)
Cooling Degree Days 15    
Growing Degree Days 30 (Base 50)    
Moisture  
Dew Point 73 °F    
Average Humidity 72    
Maximum Humidity 88    
Minimum Humidity 53    
Precipitation  
Precipitation 0.00 in - - ()
Sea Level Pressure  
Sea Level Pressure 29.88 in    
Wind  
Wind Speed 3 mph ()    
Max Wind Speed 12 mph    
Max Gust Speed -    
Visibility 6.8 miles    
Events      
Averages and records for this station are not official NWS values.
T = Trace of Precipitation, MM = Missing Value Source: Averaged Metar Reports

Daily Weather History Graph

Daily Weather History Graph

Search for Another Location

Airport or City:

Trip Planner

Search our weather history database for the weather conditions in past years. The results will help you decide how hot, cold, wet, or windy it might be!

Date:

Astronomy

Mar. 25, 2013 Rise Set
Actual Time 6:41 AM AST 6:54 PM AST
Civil Twilight 6:19 AM AST 7:16 PM AST
Nautical Twilight 5:54 AM AST 7:42 PM AST
Astronomical Twilight 5:28 AM AST 8:08 PM AST
Moon 5:30 PM AST (3/25) 5:11 AM AST (3/25)
Length of Visible Light 12h 56m
Length of Day
12h 12m
Waxing Gibbous, 96% of the Moon is Illuminated
Mar 25
Waxing Gibbous
Mar 27
Full
Apr 3
Last Quarter
Apr 10
New
Apr 18
First Quarter

Hourly Weather History & Observations

Time (AST) Temp. Heat Index Dew Point Humidity Pressure Visibility Wind Dir Wind Speed Gust Speed Precip Events Conditions
2:00 AM 75 °F - 70 °F 79% 29.85 in 9 mi Calm Calm - -   Haze
2:00 AM 75.2 °F - 69.8 °F 83% 29.83 in 6.2 mi Calm Calm - N/A   Partly Cloudy
4:55 AM 71.6 °F - 68.0 °F 88% 29.83 in 6.2 mi Calm Calm - N/A   Partly Cloudy
5:00 AM 72 °F - 68 °F 82% 29.85 in 9 mi Calm Calm - -   Haze
8:00 AM 75.2 °F - 69.8 °F 83% 29.92 in 6.2 mi Calm Calm - N/A   Partly Cloudy
9:00 AM 82.4 °F 86.3 °F 69.8 °F 66% 29.92 in 6.2 mi Calm Calm - N/A   Partly Cloudy
10:00 AM 86.0 °F 93.4 °F 73.4 °F 66% 29.92 in 6.2 mi Calm Calm - N/A   Partly Cloudy
11:00 AM 87 °F - 72 °F 53% 29.94 in 9 mi NNE 8.9 mph - -   Haze
11:00 AM 86.0 °F 91.8 °F 71.6 °F 62% 29.92 in 6.2 mi NNE 9.2 mph - N/A   Partly Cloudy
12:00 PM 87.8 °F 95.6 °F 73.4 °F 62% 29.92 in 6.2 mi ENE 5.8 mph - N/A   Partly Cloudy
1:00 PM 87.8 °F 95.6 °F 73.4 °F 62% 29.92 in 6.2 mi ENE 11.5 mph - N/A   Partly Cloudy
2:00 PM 89.6 °F 98.2 °F 73.4 °F 59% 29.89 in 6.2 mi ENE 11.5 mph - N/A   Partly Cloudy
3:00 PM 89.6 °F 99.8 °F 75.2 °F 62% 29.86 in 6.2 mi NE 6.9 mph - N/A   Partly Cloudy
4:00 PM 86.0 °F 96.9 °F 77.0 °F 74% 29.86 in 6.2 mi ENE 9.2 mph - N/A   Partly Cloudy
5:00 PM 84 °F - 75 °F 69% 29.85 in 9 mi ENE 8.9 mph - -   Haze
5:00 PM 84.2 °F 92.3 °F 75.2 °F 74% 29.83 in 6.2 mi ENE 9.2 mph - N/A   Partly Cloudy
6:00 PM 84.2 °F 92.3 °F 75.2 °F 74% 29.86 in 6.2 mi ENE 11.5 mph - N/A   Partly Cloudy
7:00 PM 82.4 °F 89.5 °F 75.2 °F 79% 29.86 in 6.2 mi ENE 11.5 mph - N/A   Partly Cloudy
8:00 PM 80.6 °F 86.2 °F 75.2 °F 84% 29.89 in 6.2 mi Calm Calm - N/A   Partly Cloudy
11:00 PM 77.0 °F - 71.6 °F 83% 29.95 in 6.2 mi Calm Calm - N/A   Partly Cloudy